Date String (YYYY-MM-DD hh:mm:ss) UTC,Instrument flags,Ambient pressure (hPa),Sample flow (lpm),Bypass flow (lpm),Sample temperature (°C),Ambient temperature (°C),ASC tube jacket temperature (°C),LED temperature (°C),Box temperature (°C),Sample RH (%),Span deviation,Mass concentration (μg/m³),Mass concentration (μg/m³),Mass concentration (μg/m³)
DateTimeUTC,F1_M11,P_M11,Q1_M11,Q2_M11,T1_M11,T2_M11,T3_M11,T4_M11,T5_M11,U1_M11,ZSPAN_M11,X2_M11,X0_M11,X1_M11
2022-01-09 01:00:00,,0825.5,4.99,0.00,23.9,23.0,00.0,33.3,25.5,15.4,0000.0,0004.54,0007.76,0004.15
2022-01-09 01:01:00,,0825.6,5.01,0.00,23.9,22.9,00.0,33.2,25.5,15.4,0000.0,0004.46,0008.31,0004.06
2022-01-09 01:02:00,,0825.6,4.99,0.00,23.9,22.9,00.0,33.2,25.5,15.5,0000.0,0004.42,0008.41,0004.02
2022-01-09 01:03:00,,0825.6,5.00,0.00,23.9,23.0,00.0,33.2,25.5,15.6,0000.0,0004.34,0008.34,0003.96
2022-01-09 01:04:00,,0825.6,4.98,0.00,23.8,23.0,00.0,33.1,25.5,15.6,0000.0,0004.26,0008.69,0003.90
2022-01-09 01:05:00,,0825.7,5.00,0.00,23.8,23.0,00.0,33.1,25.5,15.7,0000.0,0004.18,0008.58,0003.83
2022-01-09 01:06:00,,0825.7,5.01,0.00,23.8,23.0,00.0,33.1,25.5,15.8,0000.0,0004.13,0008.53,0003.77
2022-01-09 01:07:00,,0826.1,4.99,0.00,23.8,23.0,00.0,33.1,25.5,15.8,0000.0,0004.05,0008.49,0003.69
2022-01-09 01:08:00,,0825.8,4.99,0.00,23.8,23.0,00.0,33.1,25.5,15.9,0000.0,0003.95,0008.16,0003.63
2022-01-09 01:09:00,,0825.9,5.00,0.00,23.8,22.9,00.0,33.0,25.4,16.0,0000.0,0003.85,0007.96,0003.56
2022-01-09 01:10:00,,0825.9,4.99,0.00,23.7,22.9,00.0,33.0,25.4,16.1,0000.0,0003.80,0008.74,0003.52
2022-01-09 01:11:00,,0826.0,5.00,0.00,23.7,22.9,00.0,33.0,25.4,16.2,0000.0,0003.72,0008.51,0003.46
2022-01-09 01:12:00,,0826.0,4.99,0.00,23.7,22.9,00.0,33.0,25.3,16.3,0000.0,0003.63,0007.80,0003.40
2022-01-09 01:13:00,,0826.0,5.00,0.00,23.7,22.9,00.0,32.9,25.3,16.3,0000.0,0003.54,0007.47,0003.34
2022-01-09 01:14:00,,0826.2,5.01,0.00,23.7,22.9,00.0,32.9,25.4,16.3,0000.0,0003.50,0007.39,0003.31
2022-01-09 01:15:00,,0826.2,4.99,0.00,23.7,22.8,00.0,32.9,25.3,16.3,0000.0,0003.49,0006.79,0003.29
2022-01-09 01:16:00,,0826.2,5.00,0.00,23.7,22.8,00.0,32.9,25.3,16.3,0000.0,0003.48,0006.48,0003.27
2022-01-09 01:17:00,,0826.2,5.00,0.00,23.6,22.7,00.0,32.8,25.3,16.3,0000.0,0003.46,0006.37,0003.26
2022-01-09 01:18:00,,0826.2,4.99,0.00,23.6,22.7,00.0,32.8,25.3,16.3,0000.0,0003.43,0006.22,0003.25
2022-01-09 01:19:00,,0826.2,5.00,0.00,23.6,22.7,00.0,32.8,25.3,16.4,0000.0,0003.40,0006.12,0003.23
2022-01-09 01:20:00,,0826.2,5.00,0.00,23.6,22.7,00.0,32.8,25.3,16.4,0000.0,0003.37,0006.11,0003.19
2022-01-09 01:21:00,,0826.3,5.00,0.00,23.6,22.7,00.0,32.8,25.3,16.4,0000.0,0003.37,0005.03,0003.18
2022-01-09 01:22:00,,0826.3,4.99,0.00,23.6,22.8,00.0,32.8,25.3,16.4,0000.0,0003.37,0004.55,0003.16
2022-01-09 01:23:00,,0826.4,5.00,0.00,23.6,22.8,00.0,32.8,25.3,16.5,0000.0,0003.39,0004.68,0003.16
2022-01-09 01:24:00,,0826.4,4.99,0.00,23.6,22.9,00.0,32.7,25.4,16.4,0000.0,0003.38,0004.68,0003.15
2022-01-09 01:25:00,,0826.4,5.00,0.00,23.6,22.9,00.0,32.7,25.4,16.4,0000.0,0003.37,0004.66,0003.14
2022-01-09 01:26:00,,0826.4,5.00,0.00,23.6,22.9,00.0,32.7,25.4,16.4,0000.0,0003.36,0004.69,0003.11
2022-01-09 01:27:00,,0826.4,5.00,0.00,23.6,22.8,00.0,32.7,25.4,16.3,0000.0,0003.32,0004.60,0003.06
2022-01-09 01:28:00,,0826.5,4.99,0.00,23.6,22.8,00.0,32.7,25.3,16.2,0000.0,0003.30,0004.58,0003.01
2022-01-09 01:29:00,,0826.4,5.01,0.00,23.6,22.8,00.0,32.7,25.3,16.1,0000.0,0003.24,0004.41,0002.92
2022-01-09 01:30:00,,0826.5,4.99,0.00,23.6,22.8,00.0,32.7,25.2,16.1,0000.0,0003.20,0005.21,0002.84
2022-01-09 01:31:00,,0826.5,4.99,0.00,23.6,22.8,00.0,32.7,25.2,16.2,0000.0,0003.16,0005.95,0002.80
2022-01-09 01:32:00,,0826.5,5.01,0.00,23.6,22.8,00.0,32.7,25.2,16.2,0000.0,0003.12,0005.84,0002.75
2022-01-09 01:33:00,,0826.6,4.98,0.00,23.5,22.7,00.0,32.7,25.2,16.3,0000.0,0003.05,0005.77,0002.69
2022-01-09 01:34:00,,0826.7,5.00,0.00,23.5,22.6,00.0,32.6,25.1,16.3,0000.0,0002.94,0005.60,0002.63
2022-01-09 01:35:00,,0826.7,5.01,0.00,23.5,22.5,00.0,32.6,25.1,16.3,0000.0,0002.84,0005.43,0002.57
2022-01-09 01:36:00,,0826.7,4.99,0.00,23.4,22.4,00.0,32.6,25.1,16.4,0000.0,0002.77,0005.47,0002.51
2022-01-09 01:37:00,,0826.7,5.00,0.00,23.4,22.4,00.0,32.6,25.0,16.4,0000.0,0002.71,0006.30,0002.47
2022-01-09 01:38:00,,0826.8,4.99,0.00,23.4,22.4,00.0,32.6,25.0,16.3,0000.0,0002.64,0006.13,0002.44
2022-01-09 01:39:00,,0826.8,5.01,0.00,23.4,22.5,00.0,32.5,25.0,16.3,0000.0,0002.60,0006.06,0002.42
2022-01-09 01:40:00,,0827.2,5.00,0.00,23.3,22.5,00.0,32.5,25.0,16.2,0000.0,0002.60,0006.11,0002.41
2022-01-09 01:41:00,,0827.1,4.98,0.00,23.3,22.5,00.0,32.5,25.0,16.2,0000.0,0002.60,0005.22,0002.41
2022-01-09 01:42:00,,0826.9,5.00,0.00,23.3,22.4,00.0,32.5,25.0,16.2,0000.0,0002.57,0004.35,0002.39
2022-01-09 01:43:00,,0826.9,5.00,0.00,23.3,22.4,00.0,32.5,25.0,16.1,0000.0,0002.56,0004.30,0002.39
2022-01-09 01:44:00,,0827.4,5.00,0.00,23.3,22.4,00.0,32.5,25.0,16.1,0000.0,0002.59,0004.31,0002.40
2022-01-09 01:45:00,,0827.1,5.00,0.00,23.3,22.4,00.0,32.4,25.0,16.2,0000.0,0002.60,0004.32,0002.39
2022-01-09 01:46:00,,0826.9,5.00,0.00,23.3,22.5,00.0,32.4,25.0,16.2,0000.0,0002.64,0004.43,0002.40
2022-01-09 01:47:00,,0827.0,5.01,0.00,23.3,22.5,00.0,32.4,25.0,16.1,0000.0,0002.65,0004.31,0002.41
2022-01-09 01:48:00,,0827.0,5.00,0.00,23.2,22.5,00.0,32.4,24.9,16.0,0000.0,0002.63,0003.36,0002.39
2022-01-09 01:49:00,,0827.1,5.00,0.00,23.2,22.4,00.0,32.4,24.9,16.1,0000.0,0002.62,0003.36,0002.38
2022-01-09 01:50:00,,0827.0,5.00,0.00,23.2,22.4,00.0,32.4,24.9,16.0,0000.0,0002.59,0003.31,0002.37
2022-01-09 01:51:00,,0827.0,5.00,0.00,23.2,22.5,00.0,32.4,24.9,15.7,0000.0,0002.56,0003.24,0002.35
2022-01-09 01:52:00,,0826.9,5.00,0.00,23.2,22.4,00.0,32.3,24.9,15.6,0000.0,0002.56,0003.31,0002.34
2022-01-09 01:53:00,,0827.0,5.01,0.00,23.2,22.4,00.0,32.3,24.8,15.6,0000.0,0002.56,0003.48,0002.32
2022-01-09 01:54:00,,0827.5,5.00,0.00,23.1,22.4,00.0,32.3,24.8,15.6,0000.0,0002.56,0003.50,0002.31
2022-01-09 01:55:00,,0827.5,5.00,0.00,23.1,22.3,00.0,32.3,24.8,15.7,0000.0,0002.53,0003.47,0002.28
2022-01-09 01:56:00,,0827.0,4.99,0.00,23.1,22.3,00.0,32.3,24.7,15.7,0000.0,0002.52,0003.47,0002.26
2022-01-09 01:57:00,,0827.1,5.01,0.00,23.0,22.3,00.0,32.3,24.7,15.6,0000.0,0002.48,0003.37,0002.22
2022-01-09 01:58:00,,0827.1,5.01,0.00,23.0,22.2,00.0,32.2,24.7,15.7,0000.0,0002.44,0003.30,0002.19
2022-01-09 01:59:00,,0827.2,4.99,0.00,23.0,22.2,00.0,32.2,24.6,15.7,0000.0,0002.43,0003.32,0002.17
